Location: Austin
(30.3000°N, 97.7500°W)
Time: 06:06:04
(UTC-06:00)

Cosmos 1371 Rocket - Pass Details

Date: 03 March 2026
Orbit: 750 x 784 km, 74.0° (Epoch: 5 March)

Event Time Altitude Azimuth Distance (km) Brightness Sun altitude
Rises 19:01:42 0° 344° (NNW) 3,226 7.4 -7.3°
Reaches altitude 10° 19:04:04 10° 345° (NNW) 2,302 6.6 -7.8°
Maximum altitude 19:09:19 84° 74° (ENE) 777 4.0 -9.0°
Drops below altitude 10° 19:14:34 10° 163° (SSE) 2,312 6.3 -10.1°
Sets 19:16:57 0° 164° (SSE) 3,241 7.1 -10.6°
